Regional Weather Roundup
Issued by NWS Upton, NY

Current Version | Previous Version | Text Only | Print | Product List | Glossary Off
Versions: 1 2 3 4 5 6 7 8 9 10 11 12 13 14 15 16 17 18 19 20 21 22 23 24 25 26 27 28 29 30 31 32 33 34 35 36 37 38 39 40 41 42 43 44 45 46 47 48 49 50
000 ASUS41 KOKX 282319 RWROKX REGIONAL WEATHER ROUNDUP NATIONAL WEATHER SERVICE NEW YORK NY 700 PM EDT THU MAY 28 2015 NOTE: "FAIR" INDICATES FEW OR NO CLOUDS BELOW 12,000 FEET WITH NO SIGNIFICANT WEATHER AND/OR OBSTRUCTIONS TO VISIBILITY. NYZ071-072-176-178-NJZ106-104-290000- NEW YORK CITY METRO AREA CITY SKY/WX TMP DP RH WIND PRES REMARKS CENTRAL PARK CLOUDY 83 66 56 CALM 30.15R LAGUARDIA APRT CLOUDY 81 63 54 VRB6 30.12R KENNEDY INTL CLOUDY 70 59 68 SE5 30.15R NEWARK/LIBERTY CLOUDY 87 62 43 W12 30.12R BRNX BOT. GARD N/A 79 66 65 E5 30.15R TETERBORO CLOUDY 86 58 38 NW7 30.11R $$ NYZ177-179-078>081-290000- LONG ISLAND NEW YORK CITY SKY/WX TMP DP RH WIND PRES REMARKS FARMINGDALE TSTM 68 62 81 S12 30.15S ISLIP CLOUDY 68 62 81 SW9 30.15R SHIRLEY CLOUDY 69 63 81 SW14G20 30.16S WESTHAMPTON CLOUDY 65 62 90 SW12G18 30.16S MONTAUK POINT N/A 64 59 83 S9 30.17R $$ NYZ052-065-067-290000- HUDSON VALLEY CITY SKY/WX TMP DP RH WIND PRES REMARKS WHITE PLAINS PTSUNNY 76 66 71 SE7 30.15R NEWBURGH MOSUNNY 81 59 47 NW12G17 30.16R MONTGOMERY MOSUNNY 80 56 43 NW15 30.16R POUGHKEEPSIE MOSUNNY 83 55 38 W9 30.13R ALBANY PTSUNNY 71 53 52 NW14 30.21R $$ NJZ001-105-106-008-010-013-015-019>022-104-290000- NEW JERSEY CITY SKY/WX TMP DP RH WIND PRES REMARKS NEWARK/LIBERTY CLOUDY 87 62 43 W12 30.12R TETERBORO CLOUDY 86 58 38 NW7 30.11R CALDWELL PTSUNNY 84 54 35 MISG 30.14R MORRISTOWN PTSUNNY 84 57 39 N5G16 30.14R SOMERVILLE CLOUDY 87 57 35 NW14 30.12R SUSSEX MOSUNNY 80 51 36 NW10G17 30.20R ANDOVER N/A 80 54 40 VRB6 30.18R TRENTON CLOUDY 85 60 42 NW8 30.14R MILLVILLE CLOUDY 77 70 79 S3 30.16R ATLANTIC CITY CLOUDY 73 65 75 S7 30.17R WRIGHTSTOWN PTSUNNY 79 68 68 S8 30.13R TOMS RIVER CLOUDY N/A N/A N/A S6 30.16R BELMAR CLOUDY 75 63 64 S7 30.15R $$ PAZ047>061-062-071-290000- EASTERN PENNSYLVANIA CITY SKY/WX TMP DP RH WIND PRES REMARKS PHILADELPHIA PTSUNNY 83 65 54 SW7 30.15R ALLENTOWN MOSUNNY 84 54 35 N7 30.16R SCRANTON SUNNY 79 51 37 NW13 30.22R $$ CTZ002-004>006-009-010-012-RIZ004-006-007-MAZ004-011-015-290000- SOUTHERN NEW ENGLAND IN CT CITY SKY/WX TMP DP RH WIND PRES REMARKS BRADLEY INTL PTSUNNY 79 68 69 CALM 30.12R HARTFORD CLOUDY 77 67 71 S10G18 30.11R DANBURY PTSUNNY 74 67 78 W3 30.16R WTRBRY/OXFORD SUNNY 72 66 83 SW5 30.17R BRIDGEPORT LGT RAIN 73 65 75 W9G20 30.12F MERIDEN CLOUDY 75 66 73 S6 30.14R NEW HAVEN CLOUDY 72 65 78 VRB3 30.13S CHESTER FAIR 72 66 83 S7 30.16R GROTON PTSUNNY 67 61 81 S8 30.15R WILLIMANTIC CLOUDY 76 66 71 S8 30.14R IN RI CITY SKY/WX TMP DP RH WIND PRES REMARKS PROVIDENCE PTSUNNY 75 65 70 SW9G20 30.14R BLOCK ISLAND CLOUDY 61 55 82 SW15 30.19R WESTERLY PTSUNNY 64 58 80 S6 30.17R IN MA CITY SKY/WX TMP DP RH WIND PRES REMARKS BOSTON LGT RAIN 78 62 57 W5 30.10R WORCESTER CLOUDY 71 62 73 W15 30.14R WESTFIELD PTSUNNY 80 58 46 NW12 30.14R PROVINCETOWN PTSUNNY 63 57 82 SW16G25 30.14R NANTUCKET MOSUNNY 62 57 83 SW10 30.19R $$ ANZ330-335-338-340-345-350-353-355-290000- COASTAL MARINE OBSERVATIONS STATION/POSITION TIME SKY/WX TEMP WIND PRES VSBY WAVE AIR SEA DIR/SP/G HT/PER (UTC) (F) (DEG/KT/KT) (MB) (MI) (FT/S) NY HARB ENTRANCE 2250 63 59 220/ 14/ 16 1020.0 3/ 5 4S FIRE IS 2203 58 N/A 4/ 6 20S FIRE ISLAND 2250 62 58 210/ 16/ 19 1020.6 4/ 6 GREAT SOUTH BAY 2200 64 69 250/ 8/ 12 N/A 23SW MTP 2250 59 54 220/ 14/ 16 1021.1 4/ 6 HUDSON CANYON NOT AVBL KINGS POINT 2200 73 58 180/ 6/ 11 1019.4 CENTRAL LI SOUND 2215 66 61 230/ 6/ 8 N/A EASTERN LI SOUND 2200 62 240/ 6/ 8 N/A ROBBINS REEF 2200 75 190/ 11/ 13 1018.5 $$ >>>>>>>>>>>>>>>>>>>>>>>>>>>> KEY <<<<<<<<<<<<<<<<<<<<<<<<<<< > < > SKY/WX - SKY CONDITION/PRESENT WEATHER < > TMP - TEMPERATURE IN FAHRENHEIT < > DP - DEWPOINT IN FAHRENHEIT < > RH - RELATIVE HUMIDITY IN PERCENT < > WIND - DIRECTION AND SPEED IN MPH < > PRES - MEAN SEA LEVEL PRESSURE IN INCHES OF HG < > WCI - WIND CHILL INDEX < > VSB - VISIBILITY IN MILES < > HX - HEAT INDEX < > TC - TEMPERATURE IN CELSIUS < > VRB - VARIABLE WIND DIRECTION < > < >>>>>>>>>>>>>>>>>>>>>>>>>>>> KEY <<<<<<<<<<<<<<<<<<<<<<<<<<<

USA.gov is the U.S. government's official web portal to all federal, state and local government web resources and services.